Regional Weather Roundup
Issued by NWS Newport/Morehead, NC

Current Version | Previous Version | Graphics & Text | Print | Product List | Glossary Off
Versions: 1 2 3 4 5 6 7 8 9 10 11 12 13 14 15 16 17 18 19 20 21 22 23 24 25 26 27 28 29 30 31 32 33 34 35 36 37 38 39 40 41 42 43 44 45 46 47 48 49 50

000
ASUS42 KMHX 231413
RWRMHX
WEATHER ROUNDUP FOR EASTERN NORTH CAROLINA
NATIONAL WEATHER SERVICE NEWPORT/MOREHEAD CITY NC
900 AM EST THU FEB 23 2017

NOTE: "FAIR" INDICATES FEW OR NO CLOUDS BELOW 12,000 FEET
WITH NO SIGNIFICANT WEATHER AND/OR OBSTRUCTIONS TO VISIBILITY

NCZ015>017-031-032-045>047-102-103-231500-
NORTH COAST

CITY           SKY/WX    TMP DP  RH WIND       PRES   REMARKS
EDENTON        CLOUDY    61  55  81 CALM      29.99R
ELIZABETH CITY PTSUNNY   59  55  87 E3        29.99R
KITTY HAWK     NOT AVBL
MANTEO         CLOUDY    61  56  82 CALM      29.99R

$$

NCZ045>047-081-094-103-104-231500-
CENTRAL COAST

CITY           SKY/WX    TMP DP  RH WIND       PRES   REMARKS
FRISCO         CLOUDY    68  60  75 CALM      29.97R HAZE

$$

NCZ095-097-098-100-101-231500-
SOUTHERN COAST

CITY           SKY/WX    TMP DP  RH WIND       PRES   REMARKS
BEAUFORT       CLOUDY    63  57  81 NE5       29.96R
CEDAR ISLAND   NOT AVBL
JACKSONVILLE   CLOUDY    62  56  80 VRB3      29.96R
PINEY ISLAND   NOT AVBL
WILMINGTON     CLOUDY    63  59  87 N6        29.94R


$$

NCZ011>013-027>030-043-044-078>080-089-090>093-098-231500-
COASTAL PLAIN

CITY           SKY/WX    TMP DP  RH WIND       PRES   REMARKS
AHOSKIE          N/A     58  53  85 CALM      29.98S
CLINTON        MOSUNNY   62  56  81 CALM      29.98R
ELIZABETHTOWN  MOSUNNY   58  55  90 CALM      29.96R
GOLDSBORO      CLOUDY    62  59  90 CALM      29.96R
GREENVILLE     PTSUNNY   63  55  77 CALM      29.99S
HAVELOCK       NOT AVBL
KENANSVILLE    NOT AVBL
KINSTON        CLOUDY    61  55  82 NE3       29.98R
NEW BERN       MOSUNNY   59  56  89 N3        29.98R
RICHLANDS      CLOUDY    60  55  83 NE5       29.97R
ROCKY MOUNT    SUNNY     60  56  86 CALM      29.98R
WASHINGTON     MOSUNNY   60  54  80 CALM      29.98R
WHITEVILLE     CLOUDY    60  55  85 NE5       29.94S

$$

AMZ130-135-150-152-154-156-158-170-250-252-270-ANZ085-086-088-633-658-670-231500-
MARINE OBSERVATIONS

STATION/POSITION TIME  TEMP    WIND        PRES    WAVE   SWELL
                       AIR SEA DIR/SP/G            HT/PER HT/PER
                 (UTC) (F)     (DEG/KT/KT) (MB)    (FT/S) (FT/S)
CHESAPEAKE LIGHT NOT AVBL
64 E VA BEACH    1350   56 54  310/  4/  4 1015.3    3/ 9   3/ 9
DUCK             1348   56 48   40/  4/  5 1014.8
2 E DUCK         1400      50                N/A     3/11   2/11
OREGON INLET     1342   62 55   40/  1/  2 1015.0
13E OREGON INLT  NOT AVBL
HATTERAS CG      1348   67 61  110/  3/  5 1014.4
DIAMOND BUOY     1350   70 74  140/ 12/ 14 1014.7    4/10   3/10
CAPE LOOKOUT     1400   65     120/  8/  9 1013.9
BEAUFORT LAB     1348   62 55   40/  6/  7 1013.2
30 SE NEW RVR IN 1308   68     120/ 14/ 17 1013.4
30 SE NEW RVR IN 1343      69                N/A     4/ 6   2/11
27 SE WRIGHTSVLE 1308   67 65  130/ 12/ 17 1012.7
5 SE WRIGHTSVLE  1308   61 58  130/ 10/ 14 1013.1
225 S CAPE HAT   1350   68 70  110/ 21/ 25 1012.5    7/ 6   2/11
41 SE CHARLESTON 1350   71 69   80/ 16/ 17 1010.2    8/ 8   5/ 8

$$




USA.gov is the U.S. government's official web portal to all federal, state and local government web resources and services.